GW1838 Weather Reports


time (UTC)temp
C
wind
direction
speed
KPH
gust
KPH
rain 1hr
cm
rain 24hr
cm
rain mn
cm
humidity
%
barometer
mb
20260505123304 15 201 11.3 19.3 0.00 0.00 0.00 84 1011.5
20260505122805 15 222 9.7 16.1 0.00 0.00 0.00 85 1011.5
20260505122305 14 206 8.0 19.3 0.00 0.00 0.00 85 1011.4
20260505121304 14 197 8.0 19.3 0.00 0.00 0.00 88 1011.4
20260505120806 13 193 8.0 16.1 0.00 0.00 0.00 88 1011.4
20260505115804 13 201 12.9 20.9 0.00 0.00 0.00 87 1011.4
20260505114304 13 213 11.3 24.1 0.00 0.00 0.00 90 1011.3
20260505113304 12 200 11.3 20.9 0.00 0.00 0.00 90 1011.4
20260505111804 12 194 11.3 24.1 0.00 0.00 0.00 90 1011.3
20260505111304 12 203 14.5 25.7 0.00 0.00 0.00 90 1011.3
20260505110804 12 205 14.5 29.0 0.00 0.00 0.00 90 1011.4
20260505110304 12 198 11.3 20.9 0.00 0.00 0.00 89 1011.3
20260505101807 12 207 8.0 11.3 0.00 0.00 0.00 89 1011.0
20260505095807 13 219 8.0 11.3 0.00 0.00 0.00 90 1010.8
20260505095307 13 216 9.7 16.1 0.00 0.00 0.00 90 1010.8
20260505094807 13 208 8.0 16.1 0.00 0.00 0.00 90 1010.7
20260505092307 13 223 9.7 19.3 0.00 0.00 0.00 90 1010.6
20260505091807 13 226 9.7 19.3 0.00 0.00 0.00 90 1010.6
20260505085307 13 211 11.3 20.9 0.00 0.00 0.00 90 1010.5
20260505084807 13 203 9.7 22.5 0.00 0.00 0.00 90 1010.5
20260505084307 13 219 9.7 19.3 0.00 0.00 0.00 90 1010.5
20260505082807 13 217 11.3 24.1 0.00 0.00 0.00 89 1010.6
20260505081308 13 215 14.5 22.5 0.00 0.00 0.00 90 1010.4
20260505080807 13 217 14.5 22.5 0.00 0.00 0.00 90 1010.4
20260505074307 13 210 16.1 24.1 0.00 0.00 0.00 91 1010.4
20260505073807 12 206 11.3 16.1 0.00 0.00 0.00 91 1010.4
20260505073306 12 207 11.3 19.3 0.00 0.00 0.00 92 1010.4
20260505072308 12 190 14.5 20.9 0.00 0.00 0.00 91 1010.4
20260505070807 12 206 11.3 16.1 0.00 0.00 0.00 90 1010.3
20260505070307 12 203 9.7 20.9 0.00 0.00 0.00 90 1010.3
20260505064807 13 208 11.3 19.3 0.00 0.00 0.00 90 1010.3
20260505062807 13 213 12.9 24.1 0.00 0.00 0.00 90 1010.3
20260505062307 13 221 9.7 20.9 0.00 0.00 0.00 90 1010.4
20260505061307 13 223 9.7 19.3 0.00 0.00 0.00 90 1010.4
20260505055807 12 216 11.3 19.3 0.00 0.00 0.00 90 1010.5
20260505055308 12 201 14.5 24.1 0.00 0.00 0.00 90 1010.5
20260505054807 12 201 14.5 24.1 0.00 0.00 0.00 90 1010.5
20260505054307 12 192 19.3 25.7 0.00 0.00 0.00 90 1010.7
20260505052807 12 195 17.7 27.4 0.00 0.00 0.00 90 1010.7
20260505052308 12 200 16.1 29.0 0.00 0.00 0.00 90 1010.8
20260505050307 12 200 14.5 22.5 0.00 0.00 0.00 89 1011.0
20260505041307 11 200 9.7 20.9 0.00 0.00 0.00 90 1011.3
20260505040835 11 199 14.5 20.9 0.00 0.00 0.00 90 1011.3
20260505033306 11 191 9.7 22.5 0.00 0.00 0.00 90 1011.3
20260505031307 12 198 14.5 22.5 0.00 0.00 0.00 89 1011.5
20260505030806 12 198 9.7 20.9 0.00 0.00 0.00 89 1011.5
20260505030307 12 193 14.5 22.5 0.00 0.00 0.00 89 1011.5
20260505025807 12 198 14.5 25.7 0.00 0.00 0.00 88 1011.5
20260505025306 12 193 14.5 27.4 0.00 0.00 0.00 87 1011.6
20260505024306 12 197 16.1 29.0 0.00 0.00 0.00 87 1011.5
20260505023807 12 203 14.5 27.4 0.00 0.00 0.00 87 1011.6
20260505021307 13 206 17.7 37.0 0.00 0.00 0.00 85 1011.6
20260505015307 13 206 17.7 25.7 0.00 0.00 0.00 83 1011.5
20260505014307 13 216 14.5 25.7 0.00 0.00 0.00 82 1011.5
20260505013307 13 199 12.9 20.9 0.00 0.00 0.00 83 1011.4
20260505012808 13 186 14.5 20.9 0.00 0.00 0.00 83 1011.4
20260505011806 13 193 11.3 19.3 0.00 0.00 0.00 84 1011.3
20260505010807 13 206 9.7 19.3 0.00 0.00 0.00 82 1011.2
20260505005306 13 209 11.3 22.5 0.00 0.00 0.00 82 1011.0
20260505004806 13 205 9.7 19.3 0.00 0.00 0.00 82 1011.0
20260505004306 13 210 11.3 22.5 0.00 0.00 0.00 83 1010.9
20260505003806 13 207 9.7 19.3 0.00 0.00 0.00 84 1011.0
20260505002806 12 207 14.5 22.5 0.00 0.00 0.00 86 1010.9
20260505000307 12 196 14.5 27.4 0.00 0.00 0.00 87 1010.6
20260504234807 12 200 12.9 22.5 0.00 0.00 0.00 87 1010.6
20260504234306 12 197 9.7 27.4 0.00 0.00 0.00 86 1010.6
20260504233807 12 193 14.5 32.2 0.00 0.00 0.00 86 1010.6
20260504233306 12 209 9.7 22.5 0.00 0.00 0.00 86 1010.6
20260504232807 12 197 12.9 22.5 0.00 0.00 0.00 86 1010.7
20260504232307 12 199 16.1 22.5 0.00 0.00 0.00 85 1010.6
20260504231807 12 200 14.5 25.7 0.00 0.00 0.00 85 1010.7
20260504231306 12 196 14.5 25.7 0.00 0.00 0.00 85 1010.6
20260504230307 12 213 11.3 20.9 0.00 0.00 0.00 84 1010.7
20260504225806 12 199 11.3 22.5 0.00 0.00 0.00 84 1010.5
20260504225306 13 195 12.9 24.1 0.00 0.00 0.00 84 1010.5
20260504223807 13 203 19.3 32.2 0.00 0.00 0.00 83 1010.5
20260504223306 13 216 14.5 25.7 0.00 0.00 0.00 83 1010.5
20260504222306 13 203 16.1 27.4 0.00 0.00 0.00 82 1010.4
20260504221806 13 199 16.1 27.4 0.00 0.00 0.00 83 1010.4
20260504221307 13 201 17.7 29.0 0.00 0.00 0.00 82 1010.4
20260504220807 13 201 16.1 32.2 0.00 0.00 0.00 82 1010.4
20260504220307 13 204 19.3 35.4 0.00 0.00 0.00 83 1010.3
20260504215306 13 198 22.5 38.6 0.00 0.00 0.00 82 1010.2
20260504214306 13 199 19.3 32.2 0.00 0.00 0.00 82 1010.2
20260504213307 13 189 20.9 38.6 0.00 0.00 0.00 82 1010.3
20260504212806 13 200 22.5 33.8 0.00 0.00 0.00 82 1010.4
20260504211806 13 190 19.3 38.6 0.00 0.00 0.00 82 1010.3
20260504211306 13 199 19.3 29.0 0.00 0.00 0.00 82 1010.4
20260504210806 13 201 17.7 33.8 0.00 0.00 0.00 82 1010.3
20260504204306 13 202 19.3 33.8 0.00 0.00 0.00 82 1010.3
20260504203306 13 199 19.3 32.2 0.00 0.00 0.00 82 1010.3
20260504202807 13 201 19.3 33.8 0.00 0.00 0.00 82 1010.2
20260504202306 13 193 19.3 33.8 0.00 0.00 0.00 82 1010.2
20260504200808 13 191 22.5 32.2 0.00 0.00 0.00 81 1010.3
20260504195806 13 184 20.9 35.4 0.00 0.00 0.00 81 1010.5
20260504191806 13 190 20.9 32.2 0.00 0.00 0.00 79 1010.8
20260504191306 13 179 19.3 32.2 0.00 0.00 0.00 79 1010.9
20260504185806 14 196 20.9 29.0 0.00 0.00 0.00 78 1011.0
20260504183806 14 202 25.7 37.0 0.00 0.00 0.00 76 1011.4
20260504181806 14 195 19.3 32.2 0.00 0.00 0.00 77 1011.6
20260504175806 14 195 20.9 33.8 0.00 0.00 0.00 78 1011.8
20260504175306 14 191 17.7 40.2 0.00 0.00 0.00 78 1011.9
20260504174807 14 190 22.5 40.2 0.00 0.00 0.00 78 1012.0
20260504174306 14 194 20.9 33.8 0.00 0.00 0.00 79 1012.0
20260504173807 14 176 17.7 29.0 0.00 0.00 0.00 78 1012.1
20260504173307 14 191 19.3 37.0 0.00 0.00 0.00 79 1012.0
20260504172306 14 202 19.3 32.2 0.00 0.00 0.00 78 1012.1
20260504150306 13 194 20.9 32.2 0.00 0.00 0.00 77 1013.4
20260504141307 13 191 16.1 29.0 0.00 0.00 0.00 78 1013.7
20260504140306 13 189 16.1 27.4 0.00 0.00 0.00 77 1013.8